Weather reports worldwide

Advertisment
Brescia/Ghedi, Italy (16088): temperature & dewpoint: 17.10.2019 05:00:00 - 23.10.2019 05:00:00 (CEST)Brescia/Ghedi, Italy (16088): wind speed: 17.10.2019 05:00:00 - 23.10.2019 05:00:00 (CEST)Brescia/Ghedi, Italy (16088): wind direction: 17.10.2019 05:00:00 - 23.10.2019 05:00:00 (CEST)Brescia/Ghedi, Italy (16088): reduced air pressure: 17.10.2019 05:00:00 - 23.10.2019 05:00:00 (CEST)Brescia/Ghedi, Italy (16088): visibility: 17.10.2019 05:00:00 - 23.10.2019 05:00:00 (CEST)
Date & Time tt [°C] td [°C] ff [km/h] ff [kn] dd ppp [hPa] vv [km]
23.10.2019 05:00:00 13,6 11,0 2 1 NNE 1021,0 4,0
23.10.2019 04:00:00 14,0 11,4 4 2 N 1021,0 4,0
23.10.2019 03:00:00 14,2 11,5 4 2 N 1021,2 3,0
23.10.2019 02:00:00 15,0 12,5 2 1 SW 1021,5 3,0
23.10.2019 01:00:00 15,2 12,7 5 3 N 1021,8 4,0
23.10.2019 00:00:00 15,6 13,3 2 1 N 1022,0 4,0
22.10.2019 23:00:00 16,4 14,2 4 2 NNW 1021,9 5
22.10.2019 22:00:00 16,8 14,6 4 2 NNW 1021,9 6
22.10.2019 21:00:00 17,2 15,0 2 1 NNE 1021,8 6
22.10.2019 20:00:00 18,8 16,0 2 1 WSW 1021,5 8
22.10.2019 19:00:00 19,0 15,7 2 1 SW 1021,5 10
22.10.2019 18:00:00 20,2 15,6 2 1 S 1021,4 10
22.10.2019 17:00:00 21,4 15,5 2 1 SSW 1021,5 10
22.10.2019 16:00:00 21,4 15,0 5 3 SE 1021,8 10
22.10.2019 15:00:00 22,0 14,9 8 4 SSE 1022,1 10
22.10.2019 14:00:00 21,4 14,1 8 4 E 1022,6 10
22.10.2019 13:00:00 21,0 14,9 2 1 N 1023,2 10
22.10.2019 12:00:00 21,0 15,5 5 3 E 1023,4 10
22.10.2019 11:00:00 19,4 15,1 5 3 ESE 1023,0 10
22.10.2019 10:00:00 18,4 14,7 8 4 ENE 1022,9 10
22.10.2019 09:00:00 17,0 14,3 8 4 NNE 1022,6 6
22.10.2019 08:00:00 17,0 14,3 8 4 NNE 1022,3 5
22.10.2019 07:00:00 16,9 14,4 11 6 E 1022,3 5
22.10.2019 06:00:00 16,5 14,0 8 4 NE 1022,8 5
22.10.2019 05:00:00 16,8 14,3 9 5 NE 1022,7 4,0
22.10.2019 04:00:00 17,0 15,0 9 5 SE 1022,9 3,0
22.10.2019 03:00:00 17,5 15,5 2 1 SSW 1022,9 3,0
22.10.2019 02:00:00 17,7 15,7 5 3 WNW 1022,9 5
22.10.2019 01:00:00 18,0 16,0 5 3 ESE 1022,8 6
22.10.2019 00:00:00 18,2 16,0 8 4 SSE 1022,8 10
21.10.2019 23:00:00 18,5 16,1 4 2 NW 1022,8 10
21.10.2019 22:00:00 18,9 16,7 18 10 ESE 1021,6 10
21.10.2019 21:00:00 19,0 16,0 21 11 E 1021,1 10
21.10.2019 20:00:00 19,0 15,5 15 8 ESE 1020,6 10
21.10.2019 19:00:00 20,0 15,7 15 8 ENE 1020,4 10
21.10.2019 18:00:00 21,0 15,3 13 7 E 1020,0 10
21.10.2019 17:00:00 22,0 15,6 21 11 E 1020,3 10
21.10.2019 16:00:00 22,2 15,8 18 10 E 1020,5 10
21.10.2019 15:00:00 22,0 15,8 22 12 E 1020,5 10
21.10.2019 14:00:00 21,8 16,1 22 12 E 1020,6 10
21.10.2019 13:00:00 21,0 15,8 21 11 E 1020,8 10
21.10.2019 12:00:00 20,0 16,0 15 8 ENE 1020,8 10
21.10.2019 11:00:00 18,8 16,4 2 1 N 1020,6 6
21.10.2019 10:00:00 17,4 15,4 5 3 N 1020,1 4,5
21.10.2019 09:00:00 17,4 15,6 15 8 E 1019,8 3,5
21.10.2019 08:00:00 18,0 15,1 8 4 WNW 1020,0 4,0
21.10.2019 07:00:00 17,9 15,0 18 10 E 1017,6 8
21.10.2019 06:00:00 18,0 15,2 18 10 E 1017,5 6
21.10.2019 05:00:00 18,0 15,1 13 7 E 1017,7 6
21.10.2019 04:00:00 18,0 15,1 16 9 ENE 1017,3 6
21.10.2019 03:00:00 18,0 15,2 18 10 E 1018,1 5
21.10.2019 02:00:00 18,0 15,4 15 8 ENE 1018,3 5
21.10.2019 01:00:00 - - - - - - -
21.10.2019 00:00:00 18,0 15,4 13 7 E 1018,9 5
20.10.2019 23:00:00 18,8 16,0 11 6 ENE 1018,3 5
20.10.2019 22:00:00 19,6 15,2 18 10 WNW 1017,2 4,0
20.10.2019 21:00:00 19,9 15,1 13 7 E 1017,1 10
20.10.2019 20:00:00 20,0 15,2 16 9 E 1016,8 10
20.10.2019 19:00:00 20,4 15,4 15 8 E 1016,8 10
20.10.2019 18:00:00 21,0 16,2 11 6 E 1016,5 10
20.10.2019 17:00:00 20,9 15,7 16 9 E 1016,5 10
20.10.2019 16:00:00 21,0 14,9 18 10 E 1016,5 10
20.10.2019 15:00:00 21,5 14,7 15 8 SE 1017,1 10
20.10.2019 14:00:00 21,3 14,5 15 8 SE 1017,3 20
20.10.2019 13:00:00 20,9 14,8 18 10 ESE 1017,9 20
20.10.2019 12:00:00 19,3 14,1 18 10 ESE 1018,0 10
20.10.2019 11:00:00 18,0 14,1 16 9 ESE 1017,7 10
20.10.2019 10:00:00 17,1 14,0 13 7 E 1017,1 10
20.10.2019 09:00:00 16,2 14,0 8 4 E 1016,7 10
20.10.2019 08:00:00 16,0 14,0 13 7 E 1016,2 10
20.10.2019 07:00:00 15,8 13,7 9 5 E 1015,9 10
20.10.2019 06:00:00 16,2 13,7 11 6 E 1015,6 10
20.10.2019 05:00:00 16,6 13,9 11 6 E 1015,7 10
20.10.2019 04:00:00 17,0 14,3 9 5 E 1015,7 10
20.10.2019 03:00:00 17,4 14,1 11 6 E 1015,7 10
20.10.2019 02:00:00 17,8 14,3 9 5 E 1015,7 10
20.10.2019 01:00:00 18,0 14,1 15 8 E 1015,6 10
20.10.2019 00:00:00 18,0 14,1 13 7 E 1015,5 10
19.10.2019 23:00:00 17,8 13,9 13 7 E 1015,3 10
19.10.2019 22:00:00 17,6 13,5 13 7 ENE 1015,1 10
19.10.2019 21:00:00 18,0 13,1 11 6 E 1014,8 10
19.10.2019 20:00:00 18,0 12,7 11 6 ENE 1014,7 10
19.10.2019 19:00:00 18,1 12,3 13 7 ENE 1014,6 10
19.10.2019 18:00:00 18,4 12,4 16 9 ENE 1014,3 10
19.10.2019 17:00:00 18,1 12,8 18 10 ENE 1014,3 10
19.10.2019 16:00:00 18,0 13,5 18 10 ENE 1014,5 8
19.10.2019 15:00:00 18,0 13,9 21 11 ENE 1014,8 6
19.10.2019 14:00:00 17,1 13,6 16 9 ENE 1014,9 5
19.10.2019 13:00:00 17,0 13,9 11 6 ENE 1015,6 4,0
19.10.2019 12:00:00 17,0 13,9 13 7 E 1015,5 4,0
19.10.2019 11:00:00 16,1 13,4 11 6 E 1015,2 5
19.10.2019 10:00:00 16,0 13,3 11 6 E 1015,2 5
19.10.2019 09:00:00 16,0 13,1 13 7 E 1015,2 8
19.10.2019 08:00:00 16,0 13,3 9 5 E 1014,5 10
19.10.2019 07:00:00 16,0 13,7 9 5 E 1014,5 10
19.10.2019 06:00:00 16,0 13,7 13 7 E 1014,7 10
19.10.2019 05:00:00 16,0 13,7 5 3 ENE 1015,5 10
19.10.2019 04:00:00 16,0 13,7 4 2 ENE 1015,5 10
19.10.2019 03:00:00 16,0 13,7 5 3 N 1015,7 10
19.10.2019 02:00:00 16,0 13,7 5 3 N 1015,7 10
19.10.2019 01:00:00 16,0 13,7 4 2 SE 1015,7 10
19.10.2019 00:00:00 16,0 13,5 2 1 E 1016,1 10
18.10.2019 23:00:00 16,2 13,5 4 2 ENE 1016,3 10
18.10.2019 22:00:00 16,2 13,5 8 4 N 1016,5 10
18.10.2019 21:00:00 16,0 13,8 8 4 NNW 1016,7 10
18.10.2019 20:00:00 17,0 13,7 11 6 NW 1016,7 10
18.10.2019 19:00:00 17,0 13,3 9 5 WNW 1016,2 10
18.10.2019 18:00:00 17,0 13,3 13 7 NW 1016,3 10
18.10.2019 17:00:00 16,8 13,7 16 9 NNW 1016,6 10
18.10.2019 16:00:00 17,0 13,1 13 7 NW 1016,7 7
18.10.2019 15:00:00 17,4 13,9 8 4 NW 1016,9 8
18.10.2019 14:00:00 17,0 13,9 4 2 W 1017,4 8
18.10.2019 13:00:00 17,0 13,3 11 6 W 1017,6 7
18.10.2019 12:00:00 17,0 13,3 11 6 NW 1017,6 7
18.10.2019 11:00:00 16,5 13,0 4 2 W 1017,7 7
18.10.2019 10:00:00 15,8 13,3 5 3 W 1017,7 6
18.10.2019 09:00:00 15,6 13,3 8 4 W 1017,3 5
18.10.2019 08:00:00 15,6 13,3 5 3 W 1017,0 5
18.10.2019 07:00:00 15,4 13,1 8 4 W 1017,0 6
18.10.2019 06:00:00 15,4 13,4 8 4 WSW 1017,0 7
18.10.2019 05:00:00 15,4 13,2 4 2 WSW 1017,1 8
18.10.2019 04:00:00 16,2 14,0 5 3 WSW 1017,7 8
18.10.2019 03:00:00 16,4 13,5 5 3 WSW 1017,9 8
18.10.2019 02:00:00 16,6 13,3 9 5 NW 1017,9 8
18.10.2019 01:00:00 16,6 13,9 5 3 W 1018,1 8
18.10.2019 00:00:00 16,6 14,1 8 4 WNW 1018,1 8
17.10.2019 23:00:00 16,6 14,1 5 3 W 1018,1 8
17.10.2019 22:00:00 16,6 13,9 5 3 W 1017,9 8
17.10.2019 21:00:00 16,8 14,1 5 3 W 1017,9 8
17.10.2019 20:00:00 17,0 13,7 4 2 W 1017,7 8
17.10.2019 19:00:00 17,4 13,9 4 2 WSW 1017,7 8
17.10.2019 18:00:00 18,0 13,5 4 2 WSW 1017,7 10
17.10.2019 17:00:00 18,9 13,1 8 4 WSW 1017,6 10
17.10.2019 16:00:00 19,2 11,5 8 4 SW 1017,6 10
17.10.2019 15:00:00 19,2 11,0 9 5 WSW 1018,2 10
17.10.2019 14:00:00 20,0 11,5 8 4 W 1018,4 10
17.10.2019 13:00:00 19,0 11,3 5 3 WSW 1019,0 10
17.10.2019 12:00:00 18,2 11,5 5 3 WSW 1019,5 10
17.10.2019 11:00:00 17,2 11,7 4 2 SSW 1019,0 10
17.10.2019 10:00:00 15,0 11,4 2 1 SW 1018,9 8
17.10.2019 09:00:00 13,0 10,7 2 1 N 1018,7 7
17.10.2019 08:00:00 11,4 9,1 4 2 NW 1018,4 5
17.10.2019 07:00:00 12,0 9,9 4 2 WNW 1018,5 5
17.10.2019 06:00:00 12,6 10,1 2 1 S 1018,5 5
17.10.2019 05:00:00 13,0 10,5 5 3 NE 1018,5 10

tt = temperature
td = dewpoint
ff = wind speed
dd = wind direction
ppp = reduced air pressure
vv = visibility

Next stations